{"data":{"norad_id":54029,"intl_designator":"2022-129A","name":"ASO-S","alt_names":[],"object_type":"PAYLOAD","status":"ACTIVE","operator":null,"country":"PRC","launch_date":"2022-10-08","launch_site_code":"JSC","launch_vehicle":null,"mission":null,"orbit_class":"UNKNOWN","rcs_meters":null,"size_class":null,"mass_kg":null,"dimensions":null,"purposes":[],"wikipedia_slug":null,"has_3d_model":false,"image_url":null,"decayed_at":null,"tle_current":{"epoch":"2026-05-25T04:04:03.438336Z","epoch_age_seconds":63541,"freshness":"FRESH","line1":"1 54029U 22129A   26145.16948424  .00000208  00000+0  62409-4 0  9996","line2":"2 54029  98.2751 150.5799 0014769 158.6288 201.5527 14.52048444192083","mean_motion":14.52048444,"eccentricity":0.0014769,"inclination_deg":98.2751,"raan_deg":150.5799,"arg_perigee_deg":158.6288,"mean_anomaly_deg":201.5527,"bstar":6.2409e-5,"rev_number":19208,"period_min":99.170245039015,"perigee_km":708.48422283785,"apogee_km":729.44764548478,"semimajor_km":7097.1029341613,"source":"CELESTRAK","updated_at":"2026-05-25T13:37:58.540158Z"}}}